Hourly Data Report for December 23, 2017

ST. JOHN'S INTL A
NEWFOUNDLAND

47°37'07.000" N
52°45'09.000" W
140.50 m
8403505
71801
YYT

Download Data

Hourly Data (December 2017)
Hourly Data Report for December 23, 2017
TIME
LST
Temp Definition
°C
Dew Point Definition
°C
Rel Hum Definition
%
Precip. Amount Definition
mm

Wind Dir Definition
10's deg

Wind Spd Definition
km/h
Visibility Definition
km
Stn Press Definition
kPa
Hmdx Definition


Wind Chill Definition


Weather Definition


00:30 -4.7 -8.6 75   28 37 24.1 100.41   -13 LegendNANA
01:30 -4.8 -8.6 75   28 35 24.1 100.52   -13 LegendNANA
02:30 -5.0 -8.2 78   28 24 24.1 100.64   -12 Mainly Clear
03:30 -5.1 -7.7 82   29 27 24.1 100.67   -13 LegendNANA
04:30 -5.0 -7.1 85   28 26 24.1 100.71   -12 LegendNANA
05:30 -5.0 -6.9 87   27 19 24.1 100.79   -11 Mainly Clear
06:30 -4.8 -6.3 90   27 21 24.1 100.86   -11 LegendNANA
07:30 -4.5 -5.7 91   27 20 24.1 100.95   -11 LegendNANA
08:30 -4.1 -5.5 90   27 19 24.1 101.05   -10 Cloudy
09:30 -3.6 -5.1 90   27 22 24.1 101.16   -10 LegendNANA
10:30 -3.6 -5.0 90   28 20 24.1 101.23   -10 LegendNANA
11:30 -3.6 -5.1 89   27 14 24.1 101.23   -9 Cloudy
12:30 -3.5 -5.0 89   28 18 24.1 101.22   -9 LegendNANA
13:30 -3.7 -5.1 90   28 18 24.1 101.23   -10 LegendNANA
14:30 -3.7 -5.1 90   26 11 24.1 101.24   -8 Cloudy
15:30 -3.9 -5.6 88   26 9 24.1 101.30   -8 LegendNANA
16:30 -4.1 -5.8 88   25 12 24.1 101.36   -9 LegendNANA
17:30 -3.9 -5.8 86   20 10 24.1 101.41   -8 Cloudy
18:30 -4.1 -5.9 87   21 9 24.1 101.39   -8 LegendNANA
19:30 -4.4 -6.3 87   22 13 24.1 101.39   -9 LegendNANA
20:30 -4.3 -6.7 83   21 8 24.1 101.37   -8 Cloudy
21:30 -4.3 -6.7 83   21 7 24.1 101.34   -7 LegendNANA
22:30 -4.5 -6.6 86   20 15 24.1 101.33   -10 LegendNANA
23:30 -5.1 -6.4 91   17 9 24.1 101.24   -9 Cloudy

Notes on Data Quality.

Legend

  • E = Estimated
  • M = Missing
  • NA = Not Available*
  • [empty] = Indicates an unobserved value
Date modified: